Regional Weather Roundup
Issued by NWS

Home | Current Version | Previous Version | Text Only | Print | Product List | Glossary Off
Versions: 1 2 3 4 5 6 7 8 9 10 11 12 13 14 15 16 17 18 19 20 21 22 23 24 25 26 27 28 29 30 31 32 33 34 35 36 37 38 39 40 41 42 43 44 45 46 47 48 49 50

000
ASUS45 KSLC 060210
RWRUT

UTAH REGIONAL WEATHER ROUNDUP
NATIONAL WEATHER SERVICE SALT LAKE CITY UT
700 PM MST FRI FEB 05 2016

UTZ001>011-023>025-060300-

NORTHERN UTAH

CITY           SKY/WX    TMP DP  RH WIND       PRES   REMARKS
BRIGHAM CITY   CLOUDY    32  26  79 CALM      30.55R
HILL AFB       CLOUDY    32  21  64 CALM      30.52S
LOGAN          CLOUDY    30  27  88 CALM      30.53S FOG
OGDEN          CLOUDY    32  26  78 CALM      30.52S
PROVO AIRPORT  PTCLDY    21  16  79 CALM      30.54S
SALT LAKE CITY PTCLDY    32  26  78 CALM      30.54R
VERNAL         CLOUDY    13   8  81 CALM      30.50R
WENDOVER       CLEAR     30  21  69 CALM      30.53R
HEBER CITY     CLOUDY    19  14  79 E8        30.49R WCI   9
WEST JORDAN    PTCLDY    28  23  80 SW5       30.53S WCI  23

$$

UTZ012>022-026-027-060300-

SOUTHERN/CENTRAL UTAH

CITY           SKY/WX    TMP DP  RH WIND       PRES   REMARKS
BLANDING       CLEAR     24  16  70 N6        30.54S WCI  17
BRYCE CANYON   PTCLDY     7   3  84 NW3       30.47R
CEDAR CITY     PTCLDY    24  18  77 CALM      30.49R
DELTA          PTCLDY    18  17  95 SW5       30.55R WCI  11
HANKSVILLE     CLOUDY    19  18  93 NW3       30.61R
MILFORD        PTCLDY    12   9  87 S6        30.53R WCI   3
MOAB/CYNLANDS  CLOUDY    18  14  84 CALM      30.56R
PRICE          CLEAR     10   5  80 NE5       30.48R WCI   2
ST GEORGE      PTCLDY    46  21  36 NE12      30.49R
KANAB          CLEAR     32  23  69 CALM      30.51R

$$

REGIONAL REPORTS     COLORADO/ARIZONA

CITY           SKY/WX    TMP DP  RH WIND       PRES   REMARKS
CRAIG, CO      CLOUDY     2  -1  88 CALM      30.46S
GRAND JUNCTION CLOUDY    12   9  87 CALM      30.54R
RIFLE          CLOUDY    13   6  74 SE3       30.51R
MONTROSE       CLOUDY    15   8  73 SE7       30.53R WCI   5
CORTEZ         CLOUDY    26  12  55 N3        30.44R
PAGE, AZ       CLEAR     35  22  58 CALM      30.50R
GRAND CANYON   CLEAR     29  14  53 NE5       30.45S WCI  24
KINGMAN        CLEAR     46  22  38 NE15G26   30.41R
FLAGSTAFF      PTCLDY    27  12  53 E9        30.42S WCI  18

$$

REGIONAL REPORTS    NEVADA/IDAHO/WYOMING

CITY           SKY/WX    TMP DP  RH WIND       PRES   REMARKS
LAS VEGAS, NV  PTCLDY    55  23  28 NE9       30.40R
ELY            CLEAR     13   9  84 S7        30.49R WCI   3
ELKO           CLEAR     20  15  81 CALM      30.49F
POCATELLO, ID  CLOUDY    23  20  88 NE6       30.52R WCI  16
BURLEY         CLEAR     26  22  84 NE7       30.49R WCI  18
EVANSTON, WY   CLOUDY    24  17  74 W9        30.44S WCI  14
ROCK SPRINGS   CLOUDY    22  15  75 W22       30.36S WCI   6

$$



USA.gov is the U.S. government's official web portal to all federal, state and local government web resources and services.